Location: Wald
(31.7579°N, 86.6655°W)
Time: 20:19:33
(UTC+00:00)

Cosmos 2278 Rocket - Pass Details

Date: 14 July 2020
Orbit: 841 x 845 km, 71.0° (Epoch: 13 August)

Event Time Altitude Azimuth Distance (km) Brightness Sun altitude
Rises 03:40:27 0° 329° (NNW) 3,404 6.6 -28.0°
Reaches altitude 10° 03:43:03 10° 322° (NW) 2,465 5.6 -28.3°
Maximum altitude 03:48:12 37° 256° (WSW) 1,276 3.2 -28.9°
Enters shadow 03:48:46 36° 242° (WSW) 1,296 3.1 -28.9°
